COSMOS 252 DEB, 3814

Orbit data source: Space-Track

COSMOS 252 DEB, 3814 is space debris in LEO originally from a launch on Fri, 01 Nov 1968 UTC launched from the Tyuratam Missile And Space Complex (TTMTR). Debris objects in space refer to the collection of defunct objects orbiting the Earth. Examples of debris include non-operational satellites, rocket bodies, and fragments generated from explosions, collisions, or faulty payload assembly.

Loading next visibility...
Identifier
3814, 1968-097BC
Orbit
LEO
Country
Flag of CISCIS
Related business
Manufacturer
Unknown
Mission
Spacecraft
Bus & Motor
Unknown
Mass
Unknown
Launch date (UTC)
1968-11-01 (58 years ago)
Launch vehicle
Unknown
Launch site
Tyuratam Missile And Space Complex (TTMTR)
Object type
Payload
Rocket body
Debris
Shape & HBR
Unknown shape, 0.1 m
Radar Cross Section
Medium (>0.1 m² and <1 m²)

Expand to show TLE details & history
Last TLE update: 20 hours ago

TLE from 20 hours ago
0 COSMOS 252 DEB
1 03814U 68097BC  26174.73363304 -.00000524  00000-0 -54674-3 0  9997
2 03814  62.2676 301.3681 0772042  30.1402 334.1759 12.79436220655296
Epoch: 2026-06-23T17:36Z
TLE epoch observation values (Epoch: 2026-06-23T17:36:25.894Z)
Latitude
-0.00005°
Longitude
125.35923°
Altitude
818.407 km
Speed
7.694 km/s
True Right ascension
20h 05m 28s
True Declination
0° 00' 00"
Sunlit
Object was in full shadow at epoch
Visualization orbit readout
Latitude
Unknown
Longitude
Unknown
Altitude
Unknown
Speed
Unknown
Apparent Right ascension
Unknown
Apparent Declination
Unknown
Sunlit
N/A
Visualization observer readout
Local Sidereal Time
00:18:32
Azimuth
Unknown
Elevation
Unknown
Doppler factor
Unknown
Orbital elements
Apogee altitude
1,938.818 km
Perigee altitude
746.651 km
Semi-major axis
7,720.871 km
Eccentricity
0.0772
Inclination
62.2676°
RAAN
301.3681°
Arg. of periapsis
30.1402°
True anomaly
329.96087°
Mean anomaly
334.1759°
Eccentric anomaly
332.10647°
Mean motion
3.19922 °/min
Orbital period
112.53 mins
BSTAR
-0.00054674
Loading maneuver chart data...
Computing Atmospheric mass density...

Documentation

Showing up to 5 results
|